PHBLT ENRO-ENVA

Flight info

Callsign PHBLT
Flight time 0h 30m
Altitude 8000
Route VEVOD
Aircraft AEST/L-SDFGRY/S

Departure

Time 2026-05-05 16:40
Airport Røros Airport (ENRO)

Arrival

Time 2026-05-05 17:11
Airport Trondheim Airport, Værnes (ENVA)
Time Latitude Longitude Altitude Speed Heading
2026-05-05 16:19 62.57676 11.35275 2054 ft 0 kts 23°
2026-05-05 16:30 62.57691 11.35284 2060 ft 0 kts 358°
2026-05-05 16:37 62.57695 11.35280 2060 ft 4 kts 317°
2026-05-05 16:37 62.57663 11.35253 2122 ft 11 kts 135°
2026-05-05 16:37 62.57611 11.35285 2130 ft 11 kts 224°
2026-05-05 16:38 62.57557 11.35227 2131 ft 8 kts 153°
2026-05-05 16:38 62.57502 11.35349 2131 ft 15 kts 134°
2026-05-05 16:38 62.57413 11.35528 2131 ft 20 kts 125°
2026-05-05 16:38 62.57402 11.35542 2131 ft 0 kts 317°
2026-05-05 16:39 62.57423 11.35498 2131 ft 28 kts 316°
2026-05-05 16:40 62.57753 11.34797 2151 ft 89 kts 315°
2026-05-05 16:40 62.58247 11.33834 2303 ft 104 kts 316°
2026-05-05 16:40 62.58785 11.32544 2578 ft 123 kts 310°
2026-05-05 16:40 62.59337 11.31080 2947 ft 131 kts 311°
2026-05-05 16:41 62.60054 11.29831 3424 ft 134 kts 323°
2026-05-05 16:41 62.60789 11.28534 3938 ft 138 kts 311°
2026-05-05 16:41 62.61406 11.26919 4384 ft 139 kts 319°
2026-05-05 16:41 62.62240 11.25914 4819 ft 137 kts 340°
2026-05-05 16:42 62.63179 11.25482 5242 ft 139 kts 347°
2026-05-05 16:42 62.64139 11.25157 5669 ft 140 kts 348°
2026-05-05 16:42 62.65102 11.24874 6171 ft 140 kts 349°
2026-05-05 16:42 62.66068 11.24647 6578 ft 140 kts 350°
2026-05-05 16:43 62.67038 11.24459 6969 ft 140 kts 350°
2026-05-05 16:43 62.68001 11.24199 7350 ft 135 kts 347°
2026-05-05 16:43 62.68892 11.24143 7621 ft 124 kts
2026-05-05 16:43 62.69693 11.24808 7841 ft 122 kts 12°
2026-05-05 16:44 62.70478 11.25408 8002 ft 117 kts
2026-05-05 16:44 62.71239 11.25973 8153 ft 115 kts 15°
2026-05-05 16:44 62.71909 11.26879 8292 ft 113 kts 21°
2026-05-05 16:44 62.72572 11.27745 8401 ft 109 kts 17°
2026-05-05 16:45 62.73256 11.28329 8504 ft 102 kts
2026-05-05 16:45 62.73929 11.28735 8555 ft 100 kts
2026-05-05 16:45 62.74609 11.29054 8576 ft 100 kts 358°
2026-05-05 16:45 62.75304 11.29257 8586 ft 101 kts 354°
2026-05-05 16:46 62.76010 11.29351 8597 ft 102 kts 351°
2026-05-05 16:46 62.76730 11.29366 8579 ft 105 kts 349°
2026-05-05 16:46 62.77470 11.29322 8576 ft 107 kts 348°
2026-05-05 16:46 62.78228 11.29249 8548 ft 112 kts 347°
2026-05-05 16:47 62.79024 11.29129 8490 ft 119 kts 347°
2026-05-05 16:47 62.79869 11.28992 8449 ft 124 kts 347°
2026-05-05 16:47 62.80629 11.28875 8438 ft 127 kts 348°
2026-05-05 16:47 62.81111 11.28807 8436 ft 128 kts 349°
2026-05-05 16:48 62.82009 11.28832 8426 ft 130 kts 353°
2026-05-05 16:48 62.82929 11.28874 8371 ft 136 kts 352°
2026-05-05 16:48 62.83934 11.28848 8103 ft 152 kts 351°
2026-05-05 16:48 62.84659 11.28782 8043 ft 154 kts 350°
2026-05-05 16:49 62.85762 11.28647 7534 ft 178 kts 350°
2026-05-05 16:49 62.86988 11.28491 7434 ft 174 kts 351°
2026-05-05 16:49 62.88197 11.28394 7312 ft 171 kts 352°
2026-05-05 16:49 62.89355 11.28335 7356 ft 162 kts 352°
2026-05-05 16:50 62.90490 11.28283 7236 ft 165 kts 352°
2026-05-05 16:50 62.91663 11.28194 7060 ft 168 kts 352°
2026-05-05 16:50 62.92796 11.28111 7123 ft 159 kts 352°
2026-05-05 16:50 62.93883 11.28038 7166 ft 153 kts 351°
2026-05-05 16:51 62.94936 11.27973 7186 ft 150 kts 351°
2026-05-05 16:51 62.95969 11.27896 7206 ft 147 kts 351°
2026-05-05 16:51 62.96983 11.27651 7184 ft 147 kts 346°
2026-05-05 16:51 62.98005 11.27462 7156 ft 148 kts 350°
2026-05-05 16:52 62.99034 11.27400 7164 ft 149 kts 352°
2026-05-05 16:52 63.00071 11.27389 7108 ft 150 kts 354°
2026-05-05 16:52 63.01112 11.27727 7087 ft 149 kts
2026-05-05 16:52 63.02084 11.28219 7240 ft 141 kts
2026-05-05 16:53 63.03019 11.28714 7351 ft 136 kts
2026-05-05 16:53 63.03927 11.29186 7441 ft 132 kts
2026-05-05 16:53 63.04822 11.29620 7505 ft 132 kts
2026-05-05 16:53 63.05718 11.30027 7559 ft 132 kts
2026-05-05 16:54 63.06617 11.30422 7618 ft 131 kts
2026-05-05 16:54 63.07514 11.30812 7670 ft 131 kts
2026-05-05 16:54 63.08410 11.31203 7729 ft 132 kts
2026-05-05 16:54 63.09312 11.31597 7781 ft 132 kts
2026-05-05 16:55 63.10219 11.31992 7828 ft 138 kts
2026-05-05 16:55 63.11201 11.32404 7914 ft 148 kts
2026-05-05 16:55 63.12228 11.32843 8054 ft 152 kts
2026-05-05 16:55 63.13270 11.33308 8221 ft 153 kts
2026-05-05 16:56 63.14320 11.33783 8416 ft 154 kts
2026-05-05 16:56 63.15360 11.34370 8572 ft 156 kts 13°
2026-05-05 16:56 63.16344 11.35360 8668 ft 154 kts 17°
2026-05-05 16:56 63.17342 11.36313 8526 ft 162 kts 14°
2026-05-05 16:57 63.18432 11.37224 8310 ft 171 kts 13°
2026-05-05 16:57 63.19558 11.38128 8173 ft 174 kts 13°
2026-05-05 16:57 63.20694 11.39050 8069 ft 173 kts 13°
2026-05-05 16:57 63.21761 11.40279 7817 ft 181 kts 36°
2026-05-05 16:58 63.22488 11.42789 7171 ft 210 kts 66°
2026-05-05 16:58 63.22785 11.46037 6853 ft 216 kts 84°
2026-05-05 16:58 63.22638 11.49245 6910 ft 202 kts 103°
2026-05-05 16:58 63.22141 11.52146 6698 ft 204 kts 112°
2026-05-05 16:59 63.21680 11.55207 6221 ft 216 kts 103°
2026-05-05 16:59 63.21569 11.58581 5494 ft 230 kts 78°
2026-05-05 16:59 63.22215 11.61566 5600 ft 200 kts 44°
2026-05-05 16:59 63.23237 11.63215 5770 ft 172 kts 18°
2026-05-05 17:00 63.24330 11.63728 5856 ft 155 kts 347°
2026-05-05 17:00 63.25286 11.62796 5714 ft 150 kts 316°
2026-05-05 17:00 63.26074 11.61407 5718 ft 139 kts 321°
2026-05-05 17:00 63.26921 11.60463 5714 ft 136 kts 336°
2026-05-05 17:01 63.27842 11.59867 5708 ft 142 kts 338°
2026-05-05 17:01 63.28822 11.59297 5729 ft 149 kts 339°
2026-05-05 17:01 63.29843 11.58741 5785 ft 153 kts 340°
2026-05-05 17:01 63.30883 11.58186 5824 ft 155 kts 340°
2026-05-05 17:02 63.31933 11.57627 5867 ft 156 kts 340°
2026-05-05 17:02 63.32980 11.57008 5946 ft 155 kts 330°
2026-05-05 17:02 63.33891 11.55791 6047 ft 152 kts 322°
2026-05-05 17:02 63.34786 11.54540 6102 ft 152 kts 330°
2026-05-05 17:03 63.35802 11.53789 6175 ft 156 kts 340°
2026-05-05 17:03 63.36941 11.53183 5277 ft 194 kts 348°
2026-05-05 17:03 63.38398 11.53633 4861 ft 207 kts
2026-05-05 17:03 63.39769 11.53901 4908 ft 191 kts 350°
2026-05-05 17:04 63.41096 11.53266 3970 ft 210 kts 334°
2026-05-05 17:04 63.42433 11.51774 3455 ft 207 kts 333°
2026-05-05 17:04 63.43674 11.50112 2947 ft 208 kts 317°
2026-05-05 17:04 63.44669 11.47925 2889 ft 190 kts 308°
2026-05-05 17:05 63.45433 11.45566 2735 ft 184 kts 298°
2026-05-05 17:05 63.45879 11.43045 2785 ft 171 kts 281°
2026-05-05 17:05 63.45894 11.40337 2392 ft 182 kts 258°
2026-05-05 17:05 63.45678 11.37585 2353 ft 171 kts 270°
2026-05-05 17:06 63.45671 11.35057 2460 ft 160 kts 270°
2026-05-05 17:06 63.45672 11.32521 2260 ft 165 kts 271°
2026-05-05 17:06 63.45675 11.30002 2279 ft 158 kts 271°
2026-05-05 17:06 63.45681 11.27569 2281 ft 155 kts 271°
2026-05-05 17:07 63.45689 11.25171 2234 ft 152 kts 271°
2026-05-05 17:07 63.45695 11.22820 2227 ft 152 kts 271°
2026-05-05 17:07 63.45701 11.20433 2218 ft 154 kts 271°
2026-05-05 17:07 63.45705 11.18087 2225 ft 153 kts 271°
2026-05-05 17:08 63.45710 11.15698 2177 ft 154 kts 271°
2026-05-05 17:08 63.45716 11.13318 2182 ft 151 kts 271°
2026-05-05 17:08 63.45720 11.11060 2037 ft 143 kts 271°
2026-05-05 17:08 63.45725 11.08824 1710 ft 147 kts 271°
2026-05-05 17:09 63.45731 11.06535 1359 ft 143 kts 270°
2026-05-05 17:09 63.45698 11.04562 1021 ft 116 kts 270°
2026-05-05 17:09 63.45691 11.02898 848 ft 100 kts 272°
2026-05-05 17:09 63.45724 11.01309 681 ft 105 kts 272°
2026-05-05 17:10 63.45747 10.99650 602 ft 108 kts 271°
2026-05-05 17:10 63.45736 10.98025 473 ft 96 kts 268°
2026-05-05 17:10 63.45741 10.96636 328 ft 82 kts 268°
2026-05-05 17:10 63.45748 10.95394 205 ft 84 kts 269°
2026-05-05 17:11 63.45754 10.94104 72 ft 74 kts 270°
2026-05-05 17:11 63.45758 10.93067 44 ft 55 kts 270°
2026-05-05 17:11 63.45759 10.92497 38 ft 9 kts 269°
2026-05-05 17:11 63.45720 10.92424 37 ft 11 kts 177°
2026-05-05 17:12 63.45610 10.92418 37 ft 18 kts 182°
2026-05-05 17:12 63.45493 10.92442 37 ft 16 kts 165°
2026-05-05 17:12 63.45367 10.92440 37 ft 20 kts 181°
2026-05-05 17:12 63.45304 10.92334 37 ft 9 kts 268°
2026-05-05 17:13 63.45304 10.92257 37 ft 1 kts 271°
2026-05-05 17:13 63.45304 10.92254 37 ft 0 kts 270°